Showing default

IRIDIUM 171, 43929

Orbit data source: Space-Track

IRIDIUM 171, 43929 is a payload satellite owned by Iridium (US) in LEO that was launched on Fri, 11 Jan 2019 UTC via an FALCON 9 launch vehicle from the Air Force Western Test Range (AFWTR). Payloads include a variety of satellites, spacecraft, and rockets equipped with specific instruments for various scientific and technological missions. These include communications satellites like Starlink; space stations such as the ISS; scientific satellites like the Hubble; Earth observation satellites from companies like Planet Labs, Umbra, and HawkEye 360; GPS; miniature CubeSats for education and research; and military/defense satellites.

Loading next visibility...
IRIDIUM 171 details
Identifier
43929, 2019-002H
Orbit
LEO
Last TLE update12 hours ago
Origin
Flag of USIridium (US)
ManufacturerNGIS SSG Gilbert
MissionOperational Commercial Communications
Bus & MotorELITEBUS, Unknown motor
Mass860 kg wet, 700 kg dry
Launch date (UTC)
2019-01-11 (6 years ago)
Launch vehicle
FALCON 9
Launch site
Air Force Western Test Range (AFWTR)
Object type
Payload
Rocket body
Debris
Shape & HBRTrap Box + 2 Pan, 9.4 m
Radar Cross Section14.423 m², Large (>1 m²)

Expand to show TLE details & history

TLE from 12 hours ago
0 IRIDIUM 171
1 43929U 19002H   24361.10651483  .00000055  00000-0  12493-4 0  9996
2 43929  86.3987 218.6508 0001990  98.4094 261.7327 14.34218125311838
Epoch: 2024-12-26T02:33Z
Definitive object data (Epoch: 2024-12-26T02:33:22.881Z)
Latitude-0.00006°
Longitude85.21479°
Altitude780.922 km
Speed7.463 km/s
True Right ascension14h 34m 36s
True Declination0° 00' 00"
Sunlit
Object was in daylight at TLE epoch
Visualization TLE readout
Latitude-12.90958°
Longitude84.18966°
Altitude783.764 km
Speed7.461 km/s
Apparent Right ascension16h 21m 59s
Apparent Declination-66° 00' 50"
Sunlit
Object is in daylight
Visualization observer readout
Local Sidereal Time13:34:51
Azimuth163.167° S
Elevation-20.717°
Doppler factor1
Orbital elements
Apogee altitude776.054 km
Perigee altitude773.207 km
Semi-major axis7,152.767 km
Eccentricity0.000199
Inclination86.3987°
RAAN218.6508°
Arg. of periapsis98.4094°
True anomaly261.71013°
Mean anomaly261.7327°
Eccentric anomaly261.72142°
Mean motion3.58783 °/min
BSTAR0.000012493
Orbital period100.34 mins
Loading maneuver chart data...
Loading historical data...
Loading historical data...
Loading historical data...
Loading historical data...
Loading historical data...
Loading historical data...
Loading historical data...

IRIDIUM 171 Visibility forecast

Observer location: undefined°, undefined

Span
Click to sort rows by Start time (UTC) header in descending order
Start Az.
Max El. time (UTC)
Max El. Az.
Max El.
End time (UTC)
End Az.
8 mins2024-12-26 14:24:03.494Z135.102° SSE2024-12-26 14:28:03.494Z80.148° E23.681°2024-12-26 14:32:03.494Z28.387° NE
8 mins2024-12-26 16:05:03.494Z223.034° SW2024-12-26 16:08:03.494Z269.129° W28.523°2024-12-26 16:13:03.494Z342.856° N
8 mins2024-12-27 02:35:03.494Z8.769° NNE2024-12-27 02:39:03.494Z95.612° ESE40.923°2024-12-27 02:43:03.494Z163.253° S
|